"Period start","avg(HW err(1)/warn(2) (#))","avg(Visibility (m))","avg(Weather code (#))","avg(Precip intensity (mm/h))","min(HW err(1)/warn(2) (#))","max(HW err(1)/warn(2) (#))","std(HW err(1)/warn(2) (#))","med(HW err(1)/warn(2) (#))","min(Visibility (m))","max(Visibility (m))","std(Visibility (m))","med(Visibility (m))","min(Weather code (#))","max(Weather code (#))","std(Weather code (#))","med(Weather code (#))","min(Precip intensity (mm/h))","max(Precip intensity (mm/h))","std(Precip intensity (mm/h))","med(Precip intensity (mm/h))"
2014-07-10 00:00:00,0,42392,0,0.00,0,0,0,0,31818,50000,6137,43522,0,0,0,0,0.00,0.00,0.00,0.00
2014-07-10 00:10:00,0,47955,0,0.00,0,0,0,0,43491,50000,2133,48531,0,0,0,0,0.00,0.00,0.00,0.00
2014-07-10 00:20:00,0,46094,0,0.00,0,0,0,0,39662,50000,3563,46914,0,0,0,0,0.00,0.00,0.00,0.00
2014-07-10 00:30:00,0,47468,0,0.00,0,0,0,0,34596,50000,4610,50000,0,0,0,0,0.00,0.00,0.00,0.00
2014-07-10 00:40:00,0,48246,0,0.00,0,0,0,0,43915,50000,2001,49024,0,0,0,0,0.00,0.00,0.00,0.00
2014-07-10 00:50:00,0,47342,0,0.00,0,0,0,0,42417,50000,2961,48802,0,0,0,0,0.00,0.00,0.00,0.00
2014-07-10 01:00:00,0,47386,0,0.00,0,0,0,0,40142,50000,3428,50000,0,0,0,0,0.00,0.00,0.00,0.00
2014-07-10 01:10:00,0,47794,0,0.00,0,2,1,0,39242,50000,3463,49799,0,0,0,0,0.00,0.00,0.00,0.00
2014-07-10 01:20:00,0,47671,0,0.00,0,0,0,0,40271,50000,3655,50000,0,0,0,0,0.00,0.00,0.00,0.00
2014-07-10 01:30:00,0,48160,0,0.00,0,0,0,0,42941,50000,2395,49271,0,0,0,0,0.00,0.00,0.00,0.00
2014-07-10 01:40:00,0,45092,0,0.00,0,0,0,0,33576,50000,6074,47576,0,0,0,0,0.00,0.00,0.00,0.00
2014-07-10 01:50:00,0,43863,0,0.00,0,0,0,0,38435,48260,3326,43879,0,0,0,0,0.00,0.00,0.00,0.00
2014-07-10 02:00:00,0,44986,0,0.00,0,0,0,0,36013,50000,5439,47228,0,0,0,0,0.00,0.00,0.00,0.00
2014-07-10 02:10:00,0,46508,0,0.00,0,0,0,0,41088,50000,3586,47868,0,0,0,0,0.00,0.00,0.00,0.00
2014-07-10 02:20:00,0,49069,0,0.00,0,0,0,0,44953,50000,1802,50000,0,0,0,0,0.00,0.00,0.00,0.00
2014-07-10 02:30:00,0,48920,0,0.00,0,0,0,0,44648,50000,1692,50000,0,0,0,0,0.00,0.00,0.00,0.00
2014-07-10 02:40:00,0,48125,0,0.00,0,0,0,0,45466,50000,1764,48293,0,0,0,0,0.00,0.00,0.00,0.00
2014-07-10 02:50:00,0,47143,0,0.00,0,0,0,0,38288,50000,4241,50000,0,0,0,0,0.00,0.00,0.00,0.00
2014-07-10 03:00:00,0,47837,0,0.00,0,0,0,0,38398,50000,3444,49384,0,0,0,0,0.00,0.00,0.00,0.00
2014-07-10 03:10:00,0,44164,20,0.05,0,0,0,0,30369,50000,5676,45931,0,41,20,20,0.00,0.30,0.09,0.00
2014-07-10 03:20:00,0,38788,4,0.00,0,0,0,0,27591,48707,6097,38884,0,40,12,0,0.00,0.00,0.00,0.00
2014-07-10 03:30:00,0,42485,12,0.00,0,0,0,0,29639,50000,6458,42747,0,41,19,0,0.00,0.00,0.00,0.00
2014-07-10 03:40:00,0,46578,0,0.00,0,0,0,0,39075,50000,3665,47460,0,0,0,0,0.00,0.00,0.00,0.00
2014-07-10 03:50:00,0,45723,0,0.00,0,0,0,0,39847,50000,3863,46372,0,0,0,0,0.00,0.00,0.00,0.00
2014-07-10 04:00:00,0,43408,0,0.00,0,0,0,0,33483,50000,6201,43148,0,0,0,0,0.00,0.00,0.00,0.00
2014-07-10 04:10:00,0,42734,0,0.00,0,0,0,0,27927,50000,8646,47281,0,0,0,0,0.00,0.00,0.00,0.00
2014-07-10 04:20:00,0,38648,0,0.00,0,0,0,0,33974,42284,2552,38118,0,0,0,0,0.00,0.00,0.00,0.00
2014-07-10 04:30:00,0,44735,0,0.00,0,0,0,0,26475,50000,7231,48128,0,0,0,0,0.00,0.00,0.00,0.00
2014-07-10 04:40:00,0,43997,0,0.00,0,0,0,0,34080,50000,6177,45775,0,0,0,0,0.00,0.00,0.00,0.00
2014-07-10 04:50:00,0,44536,0,0.00,0,0,0,0,39365,49739,3881,44556,0,0,0,0,0.00,0.00,0.00,0.00
2014-07-10 05:00:00,0,44754,0,0.00,0,0,0,0,33476,50000,5142,45384,0,0,0,0,0.00,0.00,0.00,0.00
2014-07-10 05:10:00,0,38134,0,0.00,0,2,1,0,21454,50000,8570,34684,0,0,0,0,0.00,0.00,0.00,0.00
2014-07-10 05:20:00,0,48449,0,0.00,0,0,0,0,44382,50000,2120,50000,0,0,0,0,0.00,0.00,0.00,0.00
2014-07-10 05:30:00,0,49748,0,0.00,0,0,0,0,47800,50000,656,50000,0,0,0,0,0.00,0.00,0.00,0.00
2014-07-10 05:40:00,0,45960,0,0.00,0,0,0,0,42767,50000,2306,45622,0,0,0,0,0.00,0.00,0.00,0.00
2014-07-10 05:50:00,0,44334,0,0.00,0,0,0,0,35658,50000,4798,45184,0,0,0,0,0.00,0.00,0.00,0.00
2014-07-10 06:00:00,0,48886,0,0.00,0,2,1,0,45866,50000,1484,50000,0,0,0,0,0.00,0.00,0.00,0.00
2014-07-10 06:10:00,0,47032,0,0.00,0,2,1,0,39643,50000,3771,48622,0,0,0,0,0.00,0.00,0.00,0.00
"Period start","avg(HW err(1)/warn(2) (#))","avg(Visibility (m))","avg(Weather code (#))","avg(Precip intensity (mm/h))","min(HW err(1)/warn(2) (#))","max(HW err(1)/warn(2) (#))","std(HW err(1)/warn(2) (#))","med(HW err(1)/warn(2) (#))","min(Visibility (m))","max(Visibility (m))","std(Visibility (m))","med(Visibility (m))","min(Weather code (#))","max(Weather code (#))","std(Weather code (#))","med(Weather code (#))","min(Precip intensity (mm/h))","max(Precip intensity (mm/h))","std(Precip intensity (mm/h))","med(Precip intensity (mm/h))"
2014-07-10 08:40:00,0,48615,0,0.00,0,0,0,0,43090,50000,2365,50000,0,0,0,0,0.00,0.00,0.00,0.00
2014-07-10 08:50:00,0,46428,0,0.00,0,0,0,0,36575,50000,4026,46975,0,0,0,0,0.00,0.00,0.00,0.00
2014-07-10 09:00:00,0,46498,0,0.00,0,0,0,0,39012,50000,3994,48201,0,0,0,0,0.00,0.00,0.00,0.00
2014-07-10 09:10:00,0,49508,0,0.00,0,0,0,0,46490,50000,1091,50000,0,0,0,0,0.00,0.00,0.00,0.00
2014-07-10 09:20:00,0,48370,0,0.00,0,0,0,0,43135,50000,2187,49664,0,0,0,0,0.00,0.00,0.00,0.00
2014-07-10 09:30:00,0,46740,0,0.00,0,0,0,0,37692,50000,3738,47604,0,0,0,0,0.00,0.00,0.00,0.00
2014-07-10 09:40:00,0,46940,0,0.00,0,0,0,0,38484,50000,3464,47593,0,0,0,0,0.00,0.00,0.00,0.00
2014-07-10 09:50:00,0,46564,0,0.00,0,0,0,0,35207,50000,4896,49420,0,0,0,0,0.00,0.00,0.00,0.00
2014-07-10 10:00:00,0,34587,20,0.00,0,0,0,0,14600,45451,9627,37403,0,41,20,20,0.00,0.00,0.00,0.00
2014-07-10 10:10:00,0,47882,0,0.00,0,0,0,0,40906,50000,3011,49778,0,0,0,0,0.00,0.00,0.00,0.00
2014-07-10 10:20:00,0,48654,0,0.00,0,0,0,0,45584,50000,1703,49710,0,0,0,0,0.00,0.00,0.00,0.00
2014-07-10 10:30:00,0,29403,45,0.00,0,0,0,0,20694,36250,4471,29655,0,71,26,41,0.00,0.00,0.00,0.00
2014-07-10 10:40:00,0,10221,66,20.68,0,0,0,0,3012,27185,7563,7102,61,71,5,67,0.00,124.90,37.65,4.22
2014-07-10 10:50:00,0,16880,62,30.34,0,0,0,0,5120,29888,9621,14063,61,63,1,62,0.75,74.85,26.91,24.90
2014-07-10 11:00:00,0,37828,49,0.62,0,0,0,0,26097,49159,7222,35778,0,61,24,61,0.00,2.05,0.64,0.60
2014-07-10 11:10:00,0,47141,0,0.00,0,0,0,0,36509,50000,4489,49916,0,0,0,0,0.00,0.00,0.00,0.00
2014-07-10 11:20:00,0,29888,0,0.00,0,0,0,0,25245,34461,2904,29184,0,0,0,0,0.00,0.00,0.00,0.00
2014-07-10 11:30:00,0,43947,0,0.00,0,0,0,0,34115,50000,5800,46007,0,0,0,0,0.00,0.00,0.00,0.00
2014-07-10 11:40:00,0,30087,0,0.00,0,0,0,0,15611,46849,9110,31720,0,0,0,0,0.00,0.00,0.00,0.00
2014-07-10 11:50:00,0,26501,0,0.00,0,0,0,0,14237,40699,9969,24808,0,0,0,0,0.00,0.00,0.00,0.00
2014-07-10 12:00:00,0,38593,0,0.00,0,0,0,0,27903,48719,6106,39134,0,0,0,0,0.00,0.00,0.00,0.00
2014-07-10 12:10:00,0,45805,0,0.00,0,0,0,0,36442,50000,4043,45666,0,0,0,0,0.00,0.00,0.00,0.00
2014-07-10 12:20:00,0,42173,0,0.00,0,0,0,0,33951,49266,4925,41700,0,0,0,0,0.00,0.00,0.00,0.00
2014-07-10 12:30:00,0,47967,0,0.00,0,0,0,0,45040,50000,1947,48094,0,0,0,0,0.00,0.00,0.00,0.00
2014-07-10 12:40:00,0,25790,43,13.39,0,0,0,0,8012,48910,14446,25790,0,63,28,61,0.00,72.30,21.44,1.97
2014-07-10 12:50:00,0,21396,49,5.67,0,0,0,0,7896,41896,11123,19462,0,62,25,61,0.00,35.60,10.67,0.57
2014-07-10 13:00:00,0,11358,62,21.18,0,0,0,0,7473,14382,2368,11932,61,63,1,62,9.45,46.45,12.16,16.38
2014-07-10 13:10:00,0,24188,61,5.20,0,0,0,0,11465,37323,6975,24803,61,62,0,61,0.05,23.60,7.14,2.42
2014-07-10 13:20:00,0,39551,57,0.66,0,0,0,0,34226,47253,4110,38990,51,61,5,61,0.00,1.40,0.57,0.77
2014-07-10 13:30:00,0,43965,21,0.02,0,0,0,0,38015,48555,3526,44196,0,61,26,0,0.00,0.15,0.05,0.00
2014-07-10 13:40:00,0,43919,0,0.00,0,0,0,0,35687,50000,5270,44814,0,0,0,0,0.00,0.00,0.00,0.00
2014-07-10 13:50:00,0,46170,0,0.00,0,0,0,0,39552,50000,3996,47922,0,0,0,0,0.00,0.00,0.00,0.00
2014-07-10 14:00:00,0,48255,0,0.00,0,0,0,0,43785,50000,2496,50000,0,0,0,0,0.00,0.00,0.00,0.00
2014-07-10 14:10:00,0,48689,0,0.00,0,0,0,0,46123,50000,1516,49553,0,0,0,0,0.00,0.00,0.00,0.00
2014-07-10 14:20:00,0,47174,0,0.00,0,0,0,0,41160,50000,2609,47285,0,0,0,0,0.00,0.00,0.00,0.00
2014-07-10 14:30:00,0,48290,0,0.00,0,0,0,0,41798,50000,3098,50000,0,0,0,0,0.00,0.00,0.00,0.00
2014-07-10 14:40:00,0,47431,0,0.00,0,0,0,0,43028,50000,2668,48370,0,0,0,0,0.00,0.00,0.00,0.00
2014-07-10 14:50:00,0,49429,0,0.00,0,0,0,0,46455,50000,1171,50000,0,0,0,0,0.00,0.00,0.00,0.00
2014-07-10 15:00:00,0,47557,0,0.00,0,0,0,0,40958,50000,2971,48840,0,0,0,0,0.00,0.00,0.00,0.00
2014-07-10 15:10:00,0,48697,0,0.00,0,0,0,0,42736,50000,2109,49425,0,0,0,0,0.00,0.00,0.00,0.00
2014-07-10 15:20:00,0,49958,0,0.00,0,0,0,0,49662,50000,102,50000,0,0,0,0,0.00,0.00,0.00,0.00
2014-07-10 15:30:00,0,49207,0,0.00,0,0,0,0,43896,50000,1852,50000,0,0,0,0,0.00,0.00,0.00,0.00
2014-07-10 15:40:00,0,46522,0,0.00,0,0,0,0,37486,50000,4318,48986,0,0,0,0,0.00,0.00,0.00,0.00
2014-07-10 15:50:00,0,49896,0,0.00,0,0,0,0,49259,50000,222,50000,0,0,0,0,0.00,0.00,0.00,0.00
2014-07-10 16:00:00,0,48121,0,0.00,0,0,0,0,38992,50000,3591,50000,0,0,0,0,0.00,0.00,0.00,0.00
2014-07-10 16:10:00,0,50000,0,0.00,0,0,0,0,50000,50000,0,50000,0,0,0,0,0.00,0.00,0.00,0.00
2014-07-10 16:20:00,0,50000,0,0.00,0,0,0,0,50000,50000,0,50000,0,0,0,0,0.00,0.00,0.00,0.00
2014-07-10 16:30:00,0,50000,0,0.00,0,0,0,0,50000,50000,0,50000,0,0,0,0,0.00,0.00,0.00,0.00
2014-07-10 16:40:00,0,50000,0,0.00,0,0,0,0,50000,50000,0,50000,0,0,0,0,0.00,0.00,0.00,0.00
2014-07-10 16:50:00,0,49943,0,0.00,0,0,0,0,49428,50000,172,50000,0,0,0,0,0.00,0.00,0.00,0.00
2014-07-10 17:00:00,0,49761,0,0.00,0,0,0,0,47607,50000,718,50000,0,0,0,0,0.00,0.00,0.00,0.00
2014-07-10 17:10:00,0,49902,0,0.00,0,0,0,0,49019,50000,294,50000,0,0,0,0,0.00,0.00,0.00,0.00
2014-07-10 17:20:00,0,49972,0,0.00,0,0,0,0,49721,50000,84,50000,0,0,0,0,0.00,0.00,0.00,0.00
2014-07-10 17:30:00,0,50000,0,0.00,0,0,0,0,50000,50000,0,50000,0,0,0,0,0.00,0.00,0.00,0.00
2014-07-10 17:40:00,0,50000,0,0.00,0,0,0,0,50000,50000,0,50000,0,0,0,0,0.00,0.00,0.00,0.00
2014-07-10 17:50:00,0,50000,0,0.00,0,0,0,0,50000,50000,0,50000,0,0,0,0,0.00,0.00,0.00,0.00
2014-07-10 18:00:00,0,50000,0,0.00,0,0,0,0,50000,50000,0,50000,0,0,0,0,0.00,0.00,0.00,0.00
2014-07-10 18:10:00,0,50000,0,0.00,0,0,0,0,50000,50000,0,50000,0,0,0,0,0.00,0.00,0.00,0.00
2014-07-10 18:20:00,0,50000,0,0.00,0,0,0,0,50000,50000,0,50000,0,0,0,0,0.00,0.00,0.00,0.00
2014-07-10 18:30:00,0,50000,0,0.00,0,0,0,0,50000,50000,0,50000,0,0,0,0,0.00,0.00,0.00,0.00
2014-07-10 18:40:00,0,50000,0,0.00,0,0,0,0,50000,50000,0,50000,0,0,0,0,0.00,0.00,0.00,0.00
2014-07-10 18:50:00,0,49333,0,0.00,0,0,0,0,45012,50000,1525,50000,0,0,0,0,0.00,0.00,0.00,0.00
2014-07-10 19:00:00,0,49823,0,0.00,0,0,0,0,48966,50000,360,50000,0,0,0,0,0.00,0.00,0.00,0.00
2014-07-10 19:10:00,0,49100,0,0.00,0,0,0,0,46399,50000,1441,50000,0,0,0,0,0.00,0.00,0.00,0.00
2014-07-10 19:20:00,0,50000,0,0.00,0,0,0,0,50000,50000,0,50000,0,0,0,0,0.00,0.00,0.00,0.00
2014-07-10 19:30:00,0,48433,0,0.00,0,0,0,0,42121,50000,2620,50000,0,0,0,0,0.00,0.00,0.00,0.00
2014-07-10 19:40:00,0,48770,0,0.00,0,0,0,0,43497,50000,2081,50000,0,0,0,0,0.00,0.00,0.00,0.00
2014-07-10 19:50:00,0,49600,0,0.00,0,0,0,0,47683,50000,698,50000,0,0,0,0,0.00,0.00,0.00,0.00
2014-07-10 20:00:00,0,49312,0,0.00,0,0,0,0,46117,50000,1390,50000,0,0,0,0,0.00,0.00,0.00,0.00
2014-07-10 20:10:00,0,49902,0,0.00,0,0,0,0,49028,50000,291,50000,0,0,0,0,0.00,0.00,0.00,0.00
2014-07-10 20:20:00,0,49400,0,0.00,0,0,0,0,46581,50000,1129,50000,0,0,0,0,0.00,0.00,0.00,0.00
2014-07-10 20:30:00,0,49585,0,0.00,0,0,0,0,46464,50000,1056,50000,0,0,0,0,0.00,0.00,0.00,0.00
2014-07-10 20:40:00,0,49093,0,0.00,0,0,0,0,46391,50000,1412,50000,0,0,0,0,0.00,0.00,0.00,0.00
2014-07-10 20:50:00,0,48792,0,0.00,0,0,0,0,44775,50000,1529,48990,0,0,0,0,0.00,0.00,0.00,0.00
2014-07-10 21:00:00,0,45717,0,0.00,0,0,0,0,40243,50000,4364,46441,0,0,0,0,0.00,0.00,0.00,0.00
2014-07-10 21:10:00,0,48874,0,0.00,0,0,0,0,43277,50000,2084,50000,0,0,0,0,0.00,0.00,0.00,0.00
2014-07-10 21:20:00,0,46198,0,0.00,0,0,0,0,31610,50000,5385,48237,0,0,0,0,0.00,0.00,0.00,0.00
2014-07-10 21:30:00,0,48702,0,0.00,0,0,0,0,45159,50000,1688,49696,0,0,0,0,0.00,0.00,0.00,0.00
2014-07-10 21:40:00,0,48859,0,0.00,0,0,0,0,44801,50000,1812,50000,0,0,0,0,0.00,0.00,0.00,0.00
2014-07-10 21:50:00,0,50000,0,0.00,0,0,0,0,50000,50000,0,50000,0,0,0,0,0.00,0.00,0.00,0.00
2014-07-10 22:00:00,0,49040,0,0.00,0,0,0,0,46609,50000,1243,50000,0,0,0,0,0.00,0.00,0.00,0.00
2014-07-10 22:10:00,0,49762,0,0.00,0,0,0,0,48983,50000,386,50000,0,0,0,0,0.00,0.00,0.00,0.00
2014-07-10 22:20:00,0,49196,0,0.00,0,0,0,0,47452,50000,1140,50000,0,0,0,0,0.00,0.00,0.00,0.00
2014-07-10 22:30:00,0,48964,0,0.00,0,0,0,0,45019,50000,1825,49937,0,0,0,0,0.00,0.00,0.00,0.00
2014-07-10 22:40:00,0,46634,0,0.00,0,0,0,0,40771,50000,3677,48333,0,0,0,0,0.00,0.00,0.00,0.00
2014-07-10 22:50:00,0,47971,0,0.00,0,0,0,0,36693,50000,4217,50000,0,0,0,0,0.00,0.00,0.00,0.00
2014-07-10 23:00:00,0,49970,0,0.00,0,0,0,0,49701,50000,90,50000,0,0,0,0,0.00,0.00,0.00,0.00
2014-07-10 23:10:00,0,48804,0,0.00,0,0,0,0,41670,50000,2613,50000,0,0,0,0,0.00,0.00,0.00,0.00
2014-07-10 23:20:00,0,44130,0,0.00,0,0,0,0,38700,50000,4165,43172,0,0,0,0,0.00,0.00,0.00,0.00
2014-07-10 23:30:00,0,46666,0,0.00,0,0,0,0,38808,50000,3717,47749,0,0,0,0,0.00,0.00,0.00,0.00
2014-07-10 23:40:00,0,45802,0,0.00,0,0,0,0,33842,50000,5066,48078,0,0,0,0,0.00,0.00,0.00,0.00
2014-07-10 23:50:00,0,46720,0,0.00,0,0,0,0,40838,50000,3409,47998,0,0,0,0,0.00,0.00,0.00,0.00
